Temperature
15 16 16 16 16 16 16 16 16 16 16 16 16 16 16 16 16 15 15 15 15 15 15 15 15 15 15 15 15 15 15 15 15 14 15 14 15 15 15 15 15 15 15
16 16 16 16 16 16 16 16 16 16 16 16 16 16 16 15 15 15 15 15 15 15 15 15 15 15 15 15 15 15 15 14 14 14 14 14 14 14 14 14 14 14 14
16 16 16 16 16 16 16 16 16 16 16 16 15 15 15 15 15 15 15 15 15 15 15 15 15 15 15 15 15 15 14 14 14 14 14 14 14 14 14 14 14 14 14
16 16 15 15 16 16 16 16 16 15 15 15 15 15 15 15 15 15 15 15 15 15 15 15 15 15 14 14 14 14 14 14 14 14 14 14 14 14 14 14 14 14 14
15 15 15 15 15 16 16 15 15 15 15 15 15 15 15 15 15 15 15 15 15 14 14 14 14 14 14 14 14 14 14 14 14 14 14 14 14 14 14 14 14 14 14
15 15 15 15 15 15 15 15 15 15 15 15 15 15 15 15 14 14 14 14 14 14 14 14 14 14 14 14 14 14 14 14 14 14 13 13 13 14 14 14 14 14 14
15 15 15 15 15 15 15 15 15 15 15 15 15 15 14 14 14 14 14 14 14 14 14 14 14 14 14 14 13 13 13 13 13 13 13 13 13 13 13 14 13 13 13
15 15 15 15 15 15 15 15 15 15 15 15 15 14 14 14 14 14 14 14 14 14 14 14 14 14 13 13 13 13 13 13 13 13 13 13 13 13 13 13 13 13 13
15 15 14 14 14 14 14 14 15 15 14 14 14 14 14 14 14 14 14 14 14 14 14 14 13 13 13 13 13 13 13 13 13 13 13 13 13 13 13 13 13 13 13
14 14 14 14 14 14 14 14 14 14 14 14 14 14 14 14 14 14 14 14 14 14 14 13 13 13 13 13 13 13 13 13 13 13 13 13 13 13 13 13 13 13 13
14 14 14 14 14 14 14 14 14 14 14 14 14 14 14 14 14 14 14 14 14 14 14 13 13 13 13 13 12 12 12 13 13 13 13 12 12 12 12 12 12 12 12
14 14 13 13 13 13 13 13 13 13 13 13 14 14 13 14 14 14 13 13 13 13 13 13 13 13 13 12 12 12 12 12 12 12 12 12 12 12 12 12 12 12 12
14 14 13 13 13 13 13 13 13 13 13 13 13 13 13 13 13 13 13 13 13 13 13 13 13 12 12 12 12 12 12 12 12 12 12 12 12 12 11 12 12 12 12
13 13 13 13 13 13 13 13 13 13 13 13 13 13 13 13 13 13 13 13 13 13 13 12 12 12 12 12 12 12 12 12 12 12 11 11 11 11 11 11 11 11 11
13 13 13 13 13 13 13 13 13 13 13 13 13 13 13 13 13 13 13 13 13 13 12 12 12 12 12 12 11 11 11 11 11 11 11 11 11 11 11 11 11 11 11
13 13 13 13 13 13 13 13 13 13 13 12 13 13 13 13 13 13 13 13 13 12 12 12 12 11 11 11 11 11 11 11 11 11 11 11 11 11 10 10 10 10 10
13 13 13 12 12 12 12 12 12 12 12 12 12 12 12 12 12 12 12 12 12 12 12 11 11 11 11 11 11 10 10 11 10 10 11 11 11 10 10 10 10 10 10
13 13 12 12 12 12 12 12 12 12 12 12 12 12 12 12 12 12 12 12 12 11 11 11 11 11 10 10 10 10 10 10 10 10 10 10 10 10 10 10 10 9 9
13 12 12 12 12 12 12 12 12 12 12 12 12 12 12 12 12 12 12 12 11 11 11 11 10 10 10 10 10 10 9 9 9 9 10 10 10 10 10 10 10 9 9
12 12 12 12 12 12 11 11 11 11 11 11 11 11 11 11 11 11 11 11 11 11 10 10 10 10 10 9 9 9 9 9 9 9 9 9 9 9 9 9 9 9 9
12 12 12 11 11 11 11 11 11 11 11 11 11 11 11 11 11 11 11 11 11 11 10 10 10 9 9 9 9 9 8 8 9 9 8 9 9 9 9 9 9 9 9
12 12 11 11 11 11 11 11 11 11 11 11 11 11 11 11 11 11 11 11 10 10 10 10 10 9 9 9 9 8 8 8 8 8 8 8 8 8 8 8 8 8 8
11 11 11 11 11 11 11 10 10 10 10 10 10 10 10 10 10 10 10 10 10 10 10 10 10 10 9 9 9 9 8 8 7 8 8 8 8 8 8 8 8 8 8
11 11 11 11 11 10 10 10 10 10 10 10 10 10 10 10 10 10 10 10 10 10 10 10 9 9 9 9 8 8 8 8 8 7 7 7 7 7 8 8 8 8 8
10 10 10 10 10 10 10 10 10 10 10 10 10 10 10 10 10 10 10 10 10 9 9 9 9 9 9 9 8 8 8 8 8 8 7 7 7 8 7 7 7 7 7
10 10 10 10 10 10 10 10 10 10 10 10 9 9 9 9 9 9 9 9 9 9 9 9 9 9 9 8 8 8 8 8 8 8 8 7 7 7 7 7 7 7 7
Wind_Speed
7 11 16 15 15 15 14 14 13 13 13 13 13 13 13 14 14 14 13 13 13 13 13 14 14 15 15 15 16 16 16 16 16 16 16 15 15 15 15 15 14 14 15
10 14 17 16 15 15 14 14 14 13 13 13 13 13 13 13 13 13 13 12 12 12 13 13 14 14 14 14 15 15 15 15 15 15 15 15 14 14 14 14 14 13 15
12 14 16 16 16 15 15 14 14 13 13 13 13 12 13 13 13 13 13 12 12 12 13 13 13 13 13 13 13 13 13 13 13 13 13 12 13 13 13 13 14 14 14
13 14 15 16 16 15 15 14 14 13 13 13 12 12 12 12 13 13 13 12 12 12 13 13 13 13 12 12 12 12 12 12 12 11 10 10 10 12 13 13 14 14 14
11 13 15 17 16 15 15 14 14 14 13 13 12 12 12 12 12 12 12 12 12 13 13 12 13 12 12 11 11 11 11 11 10 10 9 9 10 12 12 13 13 13 13
10 13 15 16 16 15 15 14 14 13 13 12 12 12 11 12 12 12 12 12 13 13 13 12 12 12 11 11 11 11 11 11 10 10 9 9 9 11 12 12 12 12 12
9 11 14 16 16 15 15 14 13 13 12 12 12 11 11 11 12 12 12 12 12 12 12 12 11 11 11 10 10 10 11 11 11 10 8 8 9 11 11 11 12 12 12
10 11 13 15 16 15 15 14 14 13 12 12 11 11 11 11 11 12 12 12 11 11 11 11 11 10 10 10 10 10 10 10 10 9 7 8 9 10 11 11 11 11 11
10 9 10 12 14 15 14 14 13 13 12 12 11 11 11 11 11 11 12 11 11 11 10 10 9 9 9 9 10 10 10 10 9 8 7 7 9 10 10 10 10 10 10
8 8 8 10 11 12 12 13 13 12 12 11 11 11 11 11 11 11 12 11 11 10 10 9 9 8 8 9 9 10 10 9 9 8 7 7 9 10 10 10 10 10 9
8 7 7 8 9 11 11 11 12 11 11 10 10 11 10 9 9 10 11 11 10 10 9 9 8 8 8 8 9 9 9 8 8 7 7 8 9 9 9 9 9 9 9
9 8 7 8 8 9 9 9 9 9 9 9 10 10 10 9 9 9 10 11 10 9 9 8 8 7 7 7 7 8 7 7 6 6 7 8 8 8 8 9 9 9 8
10 9 8 8 8 8 7 8 7 8 8 9 10 11 10 9 8 8 8 8 8 7 6 6 6 6 7 7 6 6 6 6 5 5 6 7 7 7 7 8 8 8 8
8 8 8 8 8 8 8 7 7 7 6 7 9 11 10 7 6 6 6 6 6 6 5 5 5 5 6 6 7 6 6 5 5 5 6 7 6 6 7 7 8 8 7
8 8 8 8 8 8 7 6 7 7 7 8 9 10 10 7 5 6 5 6 6 6 6 5 5 4 4 5 5 6 6 6 6 5 5 6 6 6 6 7 7 7 6
9 8 8 9 8 8 6 6 6 7 8 8 8 10 11 9 7 6 5 5 6 7 7 6 5 4 4 4 4 5 5 6 6 6 5 5 6 6 6 6 6 6 5
9 8 8 9 8 8 7 7 7 8 9 7 8 10 11 10 9 7 5 5 6 7 8 6 5 5 4 4 3 4 5 5 5 6 6 6 5 5 5 5 5 5 4
8 8 8 8 8 8 7 6 6 7 8 7 9 10 11 11 11 8 6 5 7 8 7 5 4 4 3 3 3 2 4 4 5 5 6 6 5 4 4 4 4 4 3
9 9 8 7 8 8 7 6 6 6 6 7 8 8 10 11 11 9 6 6 8 6 5 5 4 4 4 3 3 3 3 3 4 5 5 5 5 5 4 4 4 3 3
8 8 9 8 7 7 6 5 4 4 4 5 6 7 9 10 11 9 6 7 8 5 4 4 4 4 4 4 4 4 3 2 3 3 3 4 4 4 4 4 5 4 3
7 7 8 8 7 7 5 5 5 5 4 4 5 7 9 10 10 9 6 6 6 5 6 6 4 4 3 4 4 3 3 3 2 1 2 3 3 4 4 4 4 3 3
8 8 8 9 9 8 6 5 4 4 3 3 4 5 8 9 10 9 7 6 6 6 6 6 5 4 2 3 4 3 1 1 2 1 0 2 2 3 3 3 4 3 3
8 8 8 8 9 8 6 5 4 3 3 2 3 4 5 8 9 9 9 7 7 7 7 7 7 6 4 2 2 4 4 3 1 2 1 1 1 2 2 4 4 5 4
7 7 7 8 8 8 8 7 8 6 5 5 4 4 4 7 8 9 9 9 8 6 7 7 6 5 6 4 2 1 2 3 3 1 2 1 2 2 3 3 4 5 5
6 6 6 6 7 8 9 9 8 5 5 3 3 4 5 4 6 8 9 8 7 6 7 7 6 6 5 5 4 2 2 1 2 3 2 2 2 3 3 4 5 5 6
4 5 5 6 7 8 9 9 9 8 6 6 5 5 5 4 4 5 7 7 7 6 7 7 7 8 7 6 5 4 4 3 3 3 3 3 3 3 3 3 4 5 6
Wind_Direction
161 163 152 147 143 140 136 132 127 125 123 121 121 119 117 116 115 114 112 110 108 107 104 100 98 98 97 96 94 93 91 90 89 85 83 84 88 88 85 82 79 77 81
154 157 151 147 144 142 139 134 131 129 128 126 125 125 124 123 121 119 115 113 111 110 107 103 102 101 99 98 97 95 94 92 90 88 83 82 85 88 88 85 84 82 83
146 152 150 147 145 142 139 136 134 132 130 129 128 128 127 126 124 123 120 116 114 111 108 106 104 103 102 100 99 98 98 97 92 89 85 85 88 90 90 88 87 85 85
143 148 150 149 147 144 141 139 137 135 133 131 129 129 129 128 126 124 121 117 113 110 107 107 107 106 105 104 102 102 101 98 94 87 83 86 91 93 90 89 89 89 87
139 145 152 151 150 148 145 143 142 138 136 134 132 130 129 129 127 121 118 116 112 109 108 108 110 108 107 105 103 102 101 101 93 85 84 91 94 95 92 90 93 91 90
138 145 152 152 152 150 149 147 146 144 141 139 137 134 132 132 130 123 119 116 113 110 109 110 112 110 108 105 101 98 98 98 95 91 91 95 98 100 97 94 94 94 92
139 145 151 153 153 151 151 149 147 148 147 145 142 139 135 132 129 126 123 119 117 115 113 113 114 114 110 105 102 98 96 98 98 95 97 102 105 104 102 99 95 93 92
142 144 152 155 155 153 153 153 151 150 151 149 147 144 141 136 131 132 128 124 122 120 119 117 115 113 111 107 105 101 97 100 99 97 96 106 112 107 105 104 99 94 92
138 140 145 152 155 156 155 154 154 154 152 152 150 148 143 138 136 135 134 132 129 125 123 120 117 114 110 108 105 100 97 99 96 100 97 106 112 107 106 107 103 98 96
138 141 144 147 149 151 154 156 157 157 155 154 153 148 144 139 138 138 136 138 135 131 127 123 118 113 107 105 103 101 98 98 94 96 97 109 109 103 102 106 105 102 101
149 150 147 146 147 149 152 159 159 157 156 151 148 146 141 135 135 137 139 139 138 135 132 127 122 114 107 104 100 98 96 98 97 98 103 109 112 106 104 106 105 105 103
165 165 160 154 152 152 157 154 154 156 154 148 145 142 138 136 138 140 142 142 141 139 138 133 125 116 108 102 96 92 94 100 95 101 110 113 115 110 106 107 105 101 100
171 169 168 163 159 155 148 152 151 150 151 152 152 148 141 135 134 134 133 138 138 136 131 129 118 114 111 109 100 96 98 98 95 104 112 115 118 120 118 113 106 101 99
170 174 172 164 160 160 154 155 155 151 153 154 158 155 145 137 134 140 139 140 137 135 129 122 116 115 113 116 111 104 103 100 98 103 114 118 122 127 129 125 118 112 105
174 178 177 167 165 163 157 161 161 161 163 164 162 160 156 149 150 150 148 147 147 144 140 131 125 122 115 115 113 111 111 109 104 104 112 120 125 129 130 131 130 124 117
181 181 178 173 168 162 164 165 165 166 166 165 165 166 163 158 156 154 152 153 154 155 154 146 137 125 117 114 110 117 121 117 109 108 108 116 123 126 129 133 133 129 126
183 178 178 178 169 166 167 168 166 168 164 164 167 167 165 161 159 156 156 159 163 160 152 139 127 117 113 109 106 113 119 114 110 111 111 107 110 121 131 137 140 133 129
177 175 180 179 172 171 168 165 160 163 164 165 165 166 166 164 162 153 153 159 160 153 148 140 136 128 122 117 109 106 108 112 110 114 113 110 107 110 126 132 141 137 135
176 173 176 173 173 174 167 159 155 157 159 162 163 164 167 166 163 156 154 155 154 145 146 151 142 142 135 122 107 90 91 106 114 117 111 115 113 113 117 120 119 119 120
175 171 172 170 172 166 157 146 145 151 155 157 163 166 166 166 164 156 153 155 151 144 144 143 142 137 137 132 106 81 64 80 105 114 123 123 123 128 127 120 120 119 110
170 168 171 169 170 163 160 161 163 172 169 170 171 171 168 166 165 159 156 157 156 159 160 150 136 132 127 129 106 77 32 32 71 96 116 125 129 145 139 138 138 140 142
176 177 175 175 171 172 174 170 164 159 165 176 173 176 177 171 169 168 162 167 164 157 155 156 142 139 145 149 134 125 107 349 343 6 152 151 155 157 160 173 172 172 164
179 181 183 181 174 171 164 146 127 107 103 149 180 190 188 177 173 171 170 167 167 165 169 170 163 152 163 186 156 147 158 201 242 307 278 213 199 187 188 191 192 196 194
190 184 178 178 175 170 163 163 165 173 179 190 187 190 191 180 176 174 173 172 171 170 172 177 173 161 161 174 186 163 150 152 159 210 305 285 242 224 216 202 201 206 209
180 177 176 172 175 172 169 171 172 177 183 169 166 180 188 186 180 175 175 174 174 176 179 179 174 171 171 175 176 161 136 115 135 162 222 261 268 246 226 211 206 209 215
165 165 167 169 181 177 173 174 177 178 174 167 175 183 189 191 186 181 179 178 178 180 182 183 181 180 184 183 183 177 169 171 182 172 194 223 239 260 247 222 213 216 219
Height
1518 1520 1523 1525 1527 1528 1530 1531 1532 1533 1534 1535 1536 1536 1537 1538 1539 1540 1541 1542 1542 1543 1544 1544 1545 1546 1546 1547 1548 1548 1548 1549 1549 1550 1550 1550 1551 1551 1551 1551 1551 1551 1551
1516 1519 1522 1524 1526 1528 1529 1531 1532 1533 1534 1535 1536 1537 1538 1539 1540 1540 1541 1542 1543 1544 1544 1545 1546 1547 1547 1548 1548 1549 1549 1550 1550 1551 1551 1552 1552 1552 1553 1553 1553 1553 1553
1516 1519 1521 1524 1526 1528 1529 1531 1532 1533 1534 1535 1536 1537 1538 1539 1540 1541 1542 1543 1544 1544 1545 1546 1546 1547 1548 1549 1549 1550 1550 1551 1552 1552 1553 1553 1554 1554 1554 1554 1554 1554 1554
1516 1518 1521 1523 1525 1527 1529 1530 1532 1533 1534 1535 1537 1538 1539 1540 1541 1542 1542 1543 1544 1545 1546 1546 1547 1548 1549 1550 1550 1551 1551 1552 1553 1553 1554 1554 1555 1555 1556 1556 1556 1556 1556
1516 1518 1520 1523 1525 1527 1528 1530 1532 1533 1534 1535 1537 1538 1539 1540 1541 1542 1543 1544 1545 1546 1546 1547 1548 1549 1550 1550 1551 1552 1552 1553 1553 1554 1555 1556 1556 1557 1557 1557 1557 1557 1557
1515 1517 1520 1522 1524 1526 1528 1529 1531 1533 1534 1535 1537 1538 1539 1540 1541 1542 1543 1544 1545 1546 1547 1548 1549 1549 1550 1551 1552 1553 1553 1554 1554 1555 1556 1557 1557 1558 1558 1558 1558 1559 1559
1514 1517 1519 1521 1524 1525 1527 1529 1530 1532 1533 1535 1536 1538 1539 1540 1542 1543 1544 1545 1546 1547 1547 1548 1549 1550 1551 1552 1553 1553 1554 1555 1556 1556 1557 1558 1558 1559 1559 1559 1560 1560 1560
1513 1516 1518 1521 1523 1525 1526 1528 1530 1531 1533 1534 1536 1537 1539 1540 1541 1542 1543 1545 1546 1547 1548 1549 1550 1551 1552 1553 1554 1554 1555 1556 1556 1557 1558 1559 1559 1560 1560 1560 1560 1561 1561
1513 1515 1517 1519 1521 1523 1525 1527 1529 1530 1532 1534 1536 1537 1539 1540 1541 1542 1543 1545 1546 1547 1548 1549 1550 1551 1552 1553 1554 1555 1555 1556 1557 1558 1559 1559 1560 1560 1561 1561 1561 1561 1561
1511 1514 1516 1518 1520 1522 1524 1526 1528 1530 1531 1533 1535 1536 1538 1540 1541 1542 1543 1544 1546 1547 1548 1549 1550 1551 1552 1553 1554 1555 1556 1557 1558 1558 1559 1560 1560 1561 1561 1561 1561 1561 1562
1510 1512 1514 1516 1518 1521 1523 1525 1527 1528 1530 1532 1534 1535 1537 1539 1540 1542 1543 1544 1546 1547 1548 1549 1550 1551 1552 1553 1554 1555 1556 1557 1558 1559 1559 1560 1560 1561 1561 1561 1561 1561 1562
1507 1510 1512 1514 1517 1519 1521 1523 1525 1527 1529 1530 1532 1534 1536 1538 1539 1541 1542 1544 1545 1546 1547 1549 1550 1551 1552 1553 1554 1555 1556 1557 1558 1559 1559 1560 1560 1561 1561 1561 1561 1561 1561
1505 1507 1510 1512 1515 1517 1519 1521 1523 1525 1527 1529 1531 1533 1535 1536 1538 1540 1541 1543 1544 1545 1547 1548 1549 1550 1552 1553 1554 1555 1556 1557 1558 1558 1559 1559 1560 1560 1561 1561 1561 1561 1561
1503 1505 1508 1510 1513 1515 1517 1519 1521 1523 1525 1526 1529 1531 1533 1535 1537 1538 1540 1542 1543 1544 1546 1547 1548 1550 1551 1552 1554 1555 1556 1557 1557 1558 1558 1559 1559 1560 1560 1560 1560 1560 1561
1501 1503 1505 1508 1510 1512 1514 1516 1519 1521 1522 1525 1527 1529 1531 1533 1535 1537 1539 1540 1542 1543 1545 1546 1548 1549 1550 1552 1553 1554 1555 1556 1557 1557 1558 1558 1559 1559 1559 1560 1560 1560 1560
1498 1500 1503 1505 1507 1510 1512 1514 1516 1518 1521 1523 1525 1527 1529 1531 1533 1535 1537 1539 1540 1542 1544 1545 1547 1548 1549 1551 1552 1553 1554 1555 1556 1557 1557 1558 1558 1558 1559 1559 1559 1559 1559
1495 1497 1500 1502 1505 1507 1509 1511 1514 1516 1518 1520 1523 1525 1527 1529 1531 1533 1535 1537 1539 1540 1542 1544 1545 1547 1548 1549 1551 1552 1553 1554 1555 1556 1556 1557 1557 1558 1558 1558 1558 1558 1558
1491 1494 1497 1499 1501 1504 1506 1509 1511 1513 1516 1518 1520 1523 1525 1527 1529 1531 1533 1535 1537 1538 1540 1542 1543 1545 1546 1548 1549 1551 1552 1553 1554 1554 1555 1556 1556 1557 1557 1557 1557 1557 1558
1488 1490 1493 1495 1498 1500 1503 1506 1508 1511 1513 1515 1518 1520 1522 1525 1527 1529 1531 1533 1535 1536 1538 1540 1541 1543 1544 1546 1548 1549 1550 1551 1552 1553 1554 1554 1555 1555 1556 1556 1556 1556 1557
1484 1487 1489 1492 1494 1497 1500 1502 1505 1507 1510 1512 1515 1517 1520 1522 1524 1526 1528 1530 1532 1534 1536 1537 1539 1541 1543 1544 1546 1547 1549 1550 1551 1551 1552 1553 1553 1554 1554 1554 1555 1555 1555
1480 1482 1485 1487 1490 1493 1495 1498 1501 1503 1506 1509 1512 1514 1517 1519 1522 1524 1526 1528 1530 1532 1533 1535 1537 1539 1540 1542 1544 1545 1547 1548 1549 1549 1550 1550 1551 1552 1552 1553 1553 1553 1553
1475 1478 1481 1483 1486 1489 1492 1495 1498 1501 1503 1506 1509 1512 1514 1516 1519 1521 1523 1525 1527 1529 1531 1532 1534 1536 1538 1540 1541 1542 1544 1547 1546 1547 1547 1548 1549 1550 1550 1551 1551 1551 1551
1471 1473 1476 1479 1482 1485 1489 1492 1495 1498 1500 1503 1505 1508 1511 1513 1515 1518 1520 1522 1524 1526 1527 1529 1531 1532 1534 1537 1538 1540 1541 1542 1543 1544 1544 1545 1546 1547 1547 1548 1549 1549 1549
1467 1470 1473 1476 1479 1482 1485 1488 1490 1492 1495 1498 1501 1505 1507 1510 1512 1514 1517 1519 1520 1522 1524 1526 1528 1529 1531 1533 1535 1536 1538 1539 1540 1540 1542 1542 1543 1544 1544 1545 1546 1546 1547
1464 1467 1469 1472 1475 1479 1481 1484 1487 1490 1493 1496 1498 1501 1504 1506 1508 1511 1513 1515 1517 1519 1521 1523 1524 1526 1528 1530 1531 1533 1534 1536 1536 1537 1538 1539 1540 1541 1542 1542 1543 1543 1543
1461 1463 1466 1468 1471 1475 1478 1481 1483 1486 1489 1492 1494 1497 1499 1502 1504 1507 1509 1511 1513 1515 1517 1519 1521 1523 1524 1526 1528 1530 1531 1532 1533 1534 1534 1535 1536 1537 1538 1539 1539 1540 1540